Regional Weather Roundup
Issued by NWS

Home | Current Version | Previous Version | Graphics & Text | Print | Product List | Glossary On
Versions: 1 2 3 4 5 6 7 8 9 10 11 12 13 14 15 16 17 18 19 20 21 22 23 24 25 26 27 28 29 30 31 32 33 34 35 36 37 38 39 40 41 42 43 44 45 46 47 48 49 50
426
ASUS45 KBOI 191010
RWRID

IDAHO REGIONAL WEATHER ROUNDUP
NATIONAL WEATHER SERVICE BOISE ID
300 AM MST SUN FEB 19 2017

NOTE: "FAIR" INDICATES FEW OR NO CLOUDS BELOW 12000 FEET
WITH NO SIGNIFICANT WEATHER AND/OR OBSTRUCTIONS TO VISIBILITY

IDZ012-014-191100-
SOUTHWEST IDAHO


CITY           SKY/WX    TMP DP  RH WIND       PRES   REMARKS
BOISE          CLOUDY    42  39  89 E8        29.51S
CALDWELL       CLOUDY    39  38  96 NE5       29.51S
MOUNTAIN HOME  CLOUDY    38  38 100 E7        29.52R WCI  33
$$

IDZ016-017-191100-
SOUTHCENTRAL IDAHO


CITY           SKY/WX    TMP DP  RH WIND       PRES   REMARKS
BURLEY         LGT RAIN  42  37  82 S6        29.55S
JEROME         LGT RAIN  38  37  97 SE8       29.56R WCI  32
TWIN FALLS     CLOUDY    40  36  86 S14       29.55S WCI  32
$$

IDZ019>023-191100-
SOUTHEAST IDAHO


CITY           SKY/WX    TMP DP  RH WIND       PRES   REMARKS
IDAHO FALLS    LGT RAIN  35  35 100 W16       29.56R WCI  25
POCATELLO      LGT RAIN  36  34  92 S7        29.60R WCI  30
REXBURG        LGT RAIN  39  37  92 SW14      29.53R WCI  31
$$

IDZ006-010-011-018-031-032-191100-
CENTRAL IDAHO MOUNTAINS


CITY           SKY/WX    TMP DP  RH WIND       PRES   REMARKS
MCCALL         CLOUDY    32  30  92 S5        29.46S WCI  27
HAILEY         MIX PCPN  32  32 100 SE6       29.55S WCI  26
STANLEY          N/A     33  31  92 NW5       29.49R WCI  29
SALMON         CLOUDY    36  34  93 SE13      29.44F WCI  27
CHALLIS        CLOUDY    34  33  96 CALM      29.45S
$$

IDZ002-004-006-007-026-191100-
NORTHERN IDAHO


CITY           SKY/WX    TMP DP  RH WIND       PRES   REMARKS
LEWISTON       CLOUDY    39  36  89 E7        29.49S WCI  34
LOWELL           N/A     35  33  92 CALM      29.54F
COEUR D`ALENE  CLOUDY    33  33 100 S7        29.48S WCI  27
MULLAN PASS    SNOW      26  26 100 VRB3      29.40R VSB 1/2
$$




USA.gov is the U.S. government's official web portal to all federal, state and local government web resources and services.